When you browse on this site, cookies collect data to enhance your experience and personalize the content and advertising you see.
Visit our Privacy Policy to learn more. By continuing to use the site, you agree to this use of cookies and data.
  • In Spain
  • List of Countries
  • For 7 days
  • Water Temperature
  • Weather Map
  • Weather Widgets
  • user-avatar
    Login

    Hourly Weather Bolshaya Dubrovka

    Today, 16 December, Monday

    Time Temperature Precipitation Wind Pressure Humidity
    00:00 -2°C° 0 mm 4 mps 739 mmHg 92%
    01:00 -2°C° 0 mm 4 mps 739 mmHg 92%
    02:00 -1°C° 0 mm 4 mps 739 mmHg 94%
    03:00 -1°C° 0 mm 5 mps 738 mmHg 94%
    04:00 0°C° 0 mm 5 mps 738 mmHg 94%
    05:00 0°C° 0 mm 5 mps 738 mmHg 95%
    06:00 0°C° 0 mm 5 mps 738 mmHg 93%
    07:00 +1°C° 0 mm 5 mps 738 mmHg 91%
    08:00 +1°C° 0 mm 5 mps 738 mmHg 90%
    09:00 +1°C° 0 mm 5 mps 738 mmHg 87%
    10:00 +1°C° 0 mm 6 mps 738 mmHg 85%
    11:00 +1°C° 0 mm 6 mps 738 mmHg 82%
    12:00 +1°C° 0 mm 6 mps 739 mmHg 82%
    13:00 0°C° 0 mm 7 mps 739 mmHg 82%
    14:00 0°C° 0 mm 7 mps 739 mmHg 82%
    15:00 0°C° 0.1 mm 7 mps 740 mmHg 80%
    16:00 +1°C° 0.1 mm 6 mps 740 mmHg 79%
    17:00 +1°C° 0.1 mm 6 mps 741 mmHg 77%
    18:00 +1°C° 0 mm 6 mps 741 mmHg 79%
    19:00 +1°C° 0 mm 5 mps 742 mmHg 80%
    20:00 +1°C° 0 mm 5 mps 743 mmHg 81%
    21:00 0°C° 0 mm 5 mps 743 mmHg 84%
    22:00 0°C° 0 mm 5 mps 743 mmHg 87%
    23:00 -1°C° 0 mm 4 mps 744 mmHg 90%

    Tomorrow, 17 December, Tuesday

    Time Temperature Precipitation Wind Pressure Humidity
    00:00 -1°C° 0 mm 4 mps 744 mmHg 92%
    01:00 0°C° 0 mm 3 mps 745 mmHg 93%
    02:00 -1°C° 0 mm 3 mps 745 mmHg 94%
    03:00 -1°C° 0 mm 3 mps 745 mmHg 94%
    04:00 -1°C° 0 mm 3 mps 745 mmHg 94%
    05:00 -1°C° 0 mm 3 mps 744 mmHg 94%
    06:00 0°C° 0 mm 3 mps 744 mmHg 93%
    07:00 0°C° 0 mm 3 mps 744 mmHg 91%
    08:00 -1°C° 0 mm 4 mps 744 mmHg 90%
    09:00 0°C° 0.1 mm 4 mps 744 mmHg 90%
    10:00 0°C° 0.1 mm 4 mps 743 mmHg 89%
    11:00 0°C° 0.1 mm 4 mps 743 mmHg 89%
    12:00 0°C° 0.7 mm 4 mps 743 mmHg 91%
    13:00 +1°C° 0.7 mm 4 mps 743 mmHg 93%
    14:00 +1°C° 0.7 mm 4 mps 743 mmHg 95%
    15:00 +2°C° 0.6 mm 3 mps 743 mmHg 96%
    16:00 +2°C° 0.6 mm 3 mps 743 mmHg 96%
    17:00 +2°C° 0.6 mm 3 mps 743 mmHg 96%
    18:00 +3°C° 0.3 mm 2 mps 743 mmHg 97%
    19:00 +3°C° 0.3 mm 2 mps 743 mmHg 97%
    20:00 +3°C° 0.3 mm 2 mps 743 mmHg 97%
    21:00 +3°C° 0 mm 2 mps 743 mmHg 97%
    22:00 +3°C° 0 mm 2 mps 743 mmHg 97%
    23:00 +4°C° 0 mm 1 mps 744 mmHg 97%

    Day after tomorrow, 18 December, Wednesday

    Time Temperature Precipitation Wind Pressure Humidity
    00:00 +4°C° 0 mm 1 mps 744 mmHg 97%
    01:00 +4°C° 0 mm 1 mps 744 mmHg 97%
    02:00 +4°C° 0 mm 1 mps 744 mmHg 97%
    03:00 +3°C° 0 mm 2 mps 744 mmHg 97%
    04:00 +3°C° 0 mm 2 mps 744 mmHg 97%
    05:00 +3°C° 0 mm 2 mps 743 mmHg 97%
    06:00 +3°C° 0 mm 2 mps 743 mmHg 97%
    07:00 +3°C° 0 mm 2 mps 743 mmHg 97%
    08:00 +3°C° 0 mm 2 mps 743 mmHg 97%
    09:00 +2°C° 0 mm 3 mps 743 mmHg 95%
    10:00 +3°C° 0 mm 3 mps 743 mmHg 93%
    11:00 +3°C° 0 mm 4 mps 742 mmHg 92%
    12:00 +3°C° 0 mm 4 mps 742 mmHg 92%
    13:00 +3°C° 0 mm 3 mps 742 mmHg 92%
    14:00 +3°C° 0 mm 3 mps 741 mmHg 93%
    15:00 +3°C° 0 mm 3 mps 741 mmHg 94%
    16:00 +1°C° 0 mm 4 mps 741 mmHg 94%
    17:00 +1°C° 0 mm 4 mps 741 mmHg 95%
    18:00 +1°C° 0 mm 4 mps 741 mmHg 96%
    19:00 +2°C° 0 mm 5 mps 741 mmHg 96%
    20:00 +2°C° 0 mm 5 mps 740 mmHg 96%
    21:00 +2°C° 0 mm 6 mps 741 mmHg 93%
    22:00 +3°C° 0 mm 6 mps 741 mmHg 90%
    23:00 +3°C° 0 mm 6 mps 741 mmHg 87%

    19 December, Thursday

    Time Temperature Precipitation Wind Pressure Humidity
    00:00 +3°C° 0 mm 6 mps 741 mmHg 87%
    01:00 +2°C° 0 mm 6 mps 742 mmHg 87%
    02:00 +1°C° 0 mm 6 mps 742 mmHg 87%
    03:00 +1°C° 0 mm 6 mps 742 mmHg 85%
    04:00 +1°C° 0 mm 6 mps 743 mmHg 82%
    05:00 +1°C° 0 mm 6 mps 743 mmHg 79%
    06:00 +1°C° 0 mm 6 mps 743 mmHg 78%
    07:00 +1°C° 0 mm 6 mps 743 mmHg 77%
    08:00 0°C° 0 mm 7 mps 743 mmHg 76%
    09:00 +2°C° 0 mm 7 mps 744 mmHg 75%
    10:00 +2°C° 0 mm 7 mps 745 mmHg 74%
    11:00 +2°C° 0 mm 7 mps 745 mmHg 73%
    12:00 +2°C° 0 mm 6 mps 745 mmHg 75%
    13:00 +2°C° 0 mm 6 mps 746 mmHg 76%
    14:00 +1°C° 0 mm 5 mps 746 mmHg 77%
    15:00 +1°C° 0 mm 5 mps 746 mmHg 80%
    16:00 0°C° 0 mm 5 mps 747 mmHg 83%
    17:00 0°C° 0 mm 4 mps 747 mmHg 86%
    18:00 -1°C° 0 mm 4 mps 748 mmHg 88%
    19:00 -1°C° 0 mm 4 mps 748 mmHg 90%
    20:00 -1°C° 0 mm 3 mps 748 mmHg 92%
    21:00 -1°C° 0 mm 3 mps 749 mmHg 93%
    22:00 -1°C° 0 mm 3 mps 749 mmHg 93%
    23:00 -2°C° 0 mm 2 mps 749 mmHg 94%

    20 December, Friday

    Time Temperature Precipitation Wind Pressure Humidity
    00:00 -2°C° 0 mm 2 mps 749 mmHg 95%
    01:00 -2°C° 0 mm 2 mps 749 mmHg 96%
    02:00 -2°C° 0 mm 2 mps 749 mmHg 96%
    03:00 -2°C° 0 mm 2 mps 749 mmHg 96%
    04:00 -2°C° 0 mm 2 mps 749 mmHg 95%
    05:00 0°C° 0 mm 1 mps 750 mmHg 95%
    06:00 0°C° 0 mm 1 mps 750 mmHg 93%
    07:00 0°C° 0 mm 1 mps 750 mmHg 91%
    08:00 0°C° 0 mm 1 mps 750 mmHg 89%
    09:00 +1°C° 0 mm 1 mps 750 mmHg 84%
    10:00 +1°C° 0 mm 1 mps 750 mmHg 80%
    11:00 +1°C° 0 mm 0 mps 750 mmHg 75%
    12:00 +2°C° 0 mm 1 mps 750 mmHg 74%
    13:00 +2°C° 0 mm 1 mps 750 mmHg 73%
    14:00 +2°C° 0 mm 1 mps 749 mmHg 73%
    15:00 +2°C° 0 mm 1 mps 749 mmHg 73%
    16:00 -1°C° 0 mm 2 mps 749 mmHg 73%
    17:00 -1°C° 0 mm 2 mps 749 mmHg 73%
    18:00 -1°C° 0 mm 2 mps 749 mmHg 72%
    19:00 -1°C° 0 mm 3 mps 748 mmHg 70%
    20:00 -1°C° 0 mm 3 mps 748 mmHg 69%
    21:00 -1°C° 0 mm 3 mps 748 mmHg 68%
    22:00 -1°C° 0 mm 3 mps 748 mmHg 67%
    23:00 -1°C° 0 mm 3 mps 748 mmHg 67%

    21 December, Saturday

    Time Temperature Precipitation Wind Pressure Humidity
    00:00 -1°C° 0 mm 3 mps 747 mmHg 66%
    01:00 -1°C° 0 mm 3 mps 747 mmHg 65%
    02:00 -1°C° 0 mm 3 mps 747 mmHg 65%
    03:00 -2°C° 0 mm 4 mps 746 mmHg 64%
    04:00 -2°C° 0 mm 4 mps 746 mmHg 64%
    05:00 -2°C° 0 mm 4 mps 746 mmHg 64%
    06:00 -2°C° 0 mm 4 mps 746 mmHg 63%
    07:00 -2°C° 0 mm 4 mps 746 mmHg 62%
    08:00 -2°C° 0 mm 4 mps 746 mmHg 61%
    09:00 -2°C° 0 mm 4 mps 745 mmHg 58%
    10:00 -1°C° 0 mm 4 mps 745 mmHg 55%
    11:00 -1°C° 0 mm 4 mps 745 mmHg 52%
    12:00 -1°C° 0 mm 4 mps 745 mmHg 52%
    13:00 -1°C° 0 mm 4 mps 745 mmHg 53%
    14:00 -1°C° 0 mm 4 mps 744 mmHg 53%
    15:00 -1°C° 0 mm 4 mps 744 mmHg 55%
    16:00 -1°C° 0 mm 4 mps 744 mmHg 57%
    17:00 -1°C° 0 mm 4 mps 744 mmHg 60%
    18:00 -1°C° 0 mm 4 mps 744 mmHg 63%
    19:00 -1°C° 0 mm 4 mps 744 mmHg 66%
    20:00 -1°C° 0 mm 4 mps 744 mmHg 69%
    21:00 -1°C° 0 mm 4 mps 744 mmHg 71%
    22:00 -1°C° 0 mm 4 mps 744 mmHg 73%
    23:00 -1°C° 0 mm 4 mps 744 mmHg 75%
    Show more